Weather reports worldwide

Advertisment
Castlederg, United Kingdom (3904): temperature & dewpoint: 13.04.2019 00:00:00 - 19.04.2019 00:00:00 (BST)Castlederg, United Kingdom (3904): temperature -20cm: 13.04.2019 00:00:00 - 19.04.2019 00:00:00 (BST)Castlederg, United Kingdom (3904): wind speed & gusts: 13.04.2019 00:00:00 - 19.04.2019 00:00:00 (BST)Castlederg, United Kingdom (3904): wind direction: 13.04.2019 00:00:00 - 19.04.2019 00:00:00 (BST)Castlederg, United Kingdom (3904): reduced air pressure: 13.04.2019 00:00:00 - 19.04.2019 00:00:00 (BST)Castlederg, United Kingdom (3904): visibility: 13.04.2019 00:00:00 - 19.04.2019 00:00:00 (BST)Castlederg, United Kingdom (3904): precipitation: 13.04.2019 00:00:00 - 19.04.2019 00:00:00 (BST)
Date & Time tt [°C] td [°C] tt -20cm [°C] ff [km/h] ff [kn] fx [km/h] fx [kn] dd ppp [hPa] vv [km] rr [mm]
19.04.2019 00:00:00 8,4 7,5 - 8 4 - - NE 1026,3 2,4 0,0
18.04.2019 23:00:00 9,2 7,5 - 5 3 - - E 1026,2 3,0 0,0
18.04.2019 22:00:00 9,5 7,6 - 8 4 - - E 1025,9 3,4 0,0
18.04.2019 21:00:00 10,8 8,0 - 9 5 - - E 1025,4 3,5 0,0
18.04.2019 20:00:00 13,3 9,3 - 15 8 - - E 1024,6 4,7 0,0
18.04.2019 19:00:00 15,3 9,7 - 15 8 - - ESE 1024,3 6 0,0
18.04.2019 18:00:00 16,9 9,4 - 16 9 - - ESE 1023,8 9 0,0
18.04.2019 17:00:00 17,2 10,6 - 16 9 - - E 1023,5 6 0,0
18.04.2019 16:00:00 16,5 10,2 - 15 8 - - ESE 1023,5 5 0,0
18.04.2019 15:00:00 16,2 11,1 - 18 10 - - ESE 1023,8 5 0,0
18.04.2019 14:00:00 15,0 10,8 - 18 10 - - ESE 1023,9 4,3 0,0
18.04.2019 13:00:00 13,5 9,8 - 16 9 - - ESE 1023,9 4,1 0,0
18.04.2019 12:00:00 12,6 9,8 - 16 9 - - ESE 1024,0 4,1 0,0
18.04.2019 11:00:00 12,2 9,1 - 16 9 - - ESE 1023,9 4,1 0,0
18.04.2019 10:00:00 10,6 8,6 9,4 15 8 - - ESE 1023,9 3,7 0,0
18.04.2019 09:00:00 9,8 9,0 - 11 6 - - ESE 1023,6 3,5 0,0
18.04.2019 08:00:00 7,6 7,4 - 4 2 - - ESE 1023,3 3,6 0,0
18.04.2019 07:00:00 6,3 6,1 - 5 3 - - NE 1022,8 3,2 0,0
18.04.2019 06:00:00 3,8 3,4 - 2 1 - - S 1022,4 2,1 0,0
18.04.2019 05:00:00 4,5 3,9 - 5 3 - - ENE 1022,5 3,0 0,0
18.04.2019 04:00:00 5,2 4,9 - 2 1 - - ENE 1022,3 5 0,0
18.04.2019 03:00:00 3,5 3,0 - 5 3 - - ESE 1022,2 1,8 0,0
18.04.2019 02:00:00 3,6 2,9 - 2 1 - - SE 1022,1 0,2 0,0
18.04.2019 01:00:00 5,1 4,3 - 2 1 - - NW 1022,0 3,4 0,0
18.04.2019 00:00:00 5,9 4,5 - 4 2 - - ENE 1021,8 1,4 0,0
17.04.2019 23:00:00 8,4 6,5 - 5 3 - - ENE 1021,7 5 0,0
17.04.2019 22:00:00 9,2 6,6 - 9 5 - - ENE 1021,3 5 0,0
17.04.2019 21:00:00 10,6 7,7 - 11 6 - - E 1020,7 6 0,0
17.04.2019 20:00:00 12,0 8,0 - 11 6 - - E 1019,9 6 0,0
17.04.2019 19:00:00 12,9 8,5 - 15 8 - - ESE 1019,4 7 0,0
17.04.2019 18:00:00 13,9 7,5 - 16 9 - - SE 1019,2 12 0,0
17.04.2019 17:00:00 14,2 8,1 - 16 9 - - SE 1018,8 11 0,0
17.04.2019 16:00:00 14,7 7,3 - 16 9 - - SE 1018,8 17 0,0
17.04.2019 15:00:00 14,8 8,0 - 16 9 - - SE 1019,1 18 0,0
17.04.2019 14:00:00 13,5 7,6 - 21 11 - - SE 1019,5 15 0,0
17.04.2019 13:00:00 11,9 7,4 - 16 9 - - SE 1019,6 17 0,0
17.04.2019 12:00:00 10,5 7,4 - 18 10 - - SE 1020,0 11 0,0
17.04.2019 11:00:00 9,6 7,3 - 13 7 - - ESE 1019,8 5 0,0
17.04.2019 10:00:00 8,0 6,8 9,0 13 7 - - ESE 1019,6 3,9 0,0
17.04.2019 09:00:00 6,7 5,8 - 13 7 - - ESE 1019,3 2,8 0,0
17.04.2019 08:00:00 5,9 5,4 - 8 4 - - E 1018,8 2,2 0,0
17.04.2019 07:00:00 5,5 4,7 - 11 6 - - E 1018,5 1,7 0,0
17.04.2019 06:00:00 6,4 5,2 - 11 6 - - ESE 1017,9 3,3 0,0
17.04.2019 05:00:00 6,8 5,9 - 9 5 - - ESE 1018,1 3,0 0,0
17.04.2019 04:00:00 6,5 5,9 - 8 4 - - ESE 1018,1 2,6 0,0
17.04.2019 03:00:00 5,5 4,7 - 5 3 - - ESE 1018,0 2,0 0,0
17.04.2019 02:00:00 5,2 4,4 - 5 3 - - E 1018,2 3,1 0,0
17.04.2019 01:00:00 5,2 4,0 - 5 3 - - E 1018,1 3,4 0,0
17.04.2019 00:00:00 6,5 5,0 - 9 5 - - E 1017,7 4,8 0,0
16.04.2019 23:00:00 7,8 5,6 - 8 4 - - ESE 1017,7 6 0,0
16.04.2019 22:00:00 8,8 7,0 - 5 3 - - E 1017,5 5 0,0
16.04.2019 21:00:00 8,9 6,8 - 8 4 - - E 1017,1 7 0,0
16.04.2019 20:00:00 9,2 6,5 - 11 6 - - E 1016,5 8 0,0
16.04.2019 19:00:00 10,2 7,5 - 9 5 - - ESE 1016,0 8 0,0
16.04.2019 18:00:00 10,2 7,2 - 11 6 - - SE 1016,1 8 0,0
16.04.2019 17:00:00 10,3 7,3 - 13 7 - - ESE 1015,9 12 0,0
16.04.2019 16:00:00 10,3 7,2 - 13 7 - - ESE 1016,2 11 0,0
16.04.2019 15:00:00 10,4 7,2 - 15 8 - - SE 1016,2 11 0,0
16.04.2019 14:00:00 10,1 7,3 - 13 7 - - SE 1016,0 12 0,0
16.04.2019 13:00:00 9,1 7,2 - 15 8 - - ESE 1015,7 8 0,0
16.04.2019 12:00:00 8,3 7,1 - 13 7 - - ESE 1015,8 6 0,0
16.04.2019 11:00:00 8,0 7,2 - 13 7 - - ESE 1015,7 2,8 0,0
16.04.2019 10:00:00 7,4 6,8 8,9 13 7 - - ESE 1015,6 3,5 0,0
16.04.2019 09:00:00 7,4 7,0 - 11 6 - - ESE 1015,2 2,1 0,0
16.04.2019 08:00:00 7,4 7,0 - 13 7 - - ESE 1014,6 3,6 0,2
16.04.2019 07:00:00 7,0 6,6 - 11 6 - - SE 1014,0 1,8 0,2
16.04.2019 06:00:00 7,0 6,5 - 13 7 - - ESE 1013,4 1,9 0,0
16.04.2019 05:00:00 7,1 6,5 - 13 7 - - ESE 1013,0 2,0 0,2
16.04.2019 04:00:00 7,1 6,4 - 15 8 - - SE 1012,9 3,7 0,6
16.04.2019 03:00:00 7,1 6,3 - 15 8 - - ESE 1012,7 3,7 0,4
16.04.2019 02:00:00 7,0 6,2 - 16 9 - - ESE 1012,2 4,0 0,4
16.04.2019 01:00:00 7,0 5,9 - 15 8 - - ESE 1012,0 5 0,6
16.04.2019 00:00:00 7,1 5,4 - 18 10 - - ESE 1011,6 7 0,2
15.04.2019 23:00:00 7,7 4,2 - 28 15 48 26 SE 1011,0 12 0,0
15.04.2019 22:00:00 8,1 3,9 - 34 18 50 27 SE 1010,1 15 0,0
15.04.2019 21:00:00 8,6 3,4 - 28 15 48 26 SE 1010,0 14 0,0
15.04.2019 20:00:00 8,6 4,1 - 29 16 50 27 SE 1008,7 9 0,0
15.04.2019 19:00:00 8,0 5,1 - 29 16 54 29 ESE 1008,4 8 0,0
15.04.2019 18:00:00 7,6 5,3 - 28 15 59 32 ESE 1008,4 6 0,6
15.04.2019 17:00:00 7,8 5,2 - 28 15 50 27 ESE 1009,0 6 0,6
15.04.2019 16:00:00 6,8 4,4 - 29 16 59 32 ESE 1009,9 5 0,6
15.04.2019 15:00:00 6,6 3,9 - 35 19 70 38 SE 1010,2 4,3 0,0
15.04.2019 14:00:00 8,1 3,2 - 41 22 68 37 ESE 1010,1 11 0,0
15.04.2019 13:00:00 7,2 3,3 - 34 18 63 34 ESE 1010,9 8 0,0
15.04.2019 12:00:00 6,4 3,8 - 24 13 50 27 ESE 1011,9 7 0,2
15.04.2019 11:00:00 5,7 3,7 - 28 15 55 30 ESE 1012,4 6 0,2
15.04.2019 10:00:00 4,7 2,9 8,7 28 15 50 27 ESE 1012,9 4,6 0,8
15.04.2019 09:00:00 5,1 2,5 - 26 14 46 25 E 1013,5 7 0,2
15.04.2019 08:00:00 5,3 2,1 - 15 8 - - ESE 1014,8 9 0,0
15.04.2019 07:00:00 5,5 1,3 - 24 13 - - ESE 1015,0 12 0,0
15.04.2019 06:00:00 6,0 0,8 - 24 13 48 26 ESE 1015,8 15 0,0
15.04.2019 05:00:00 5,9 1,6 - 24 13 - - E 1016,5 16 0,0
15.04.2019 04:00:00 5,5 1,1 - 22 12 - - E 1017,1 18 0,0
15.04.2019 03:00:00 5,8 1,2 - 22 12 - - E 1018,1 22 0,0
15.04.2019 02:00:00 5,3 1,4 - 16 9 - - E 1019,3 26 0,0
15.04.2019 01:00:00 4,6 1,0 - 15 8 - - E 1020,1 20 0,0
15.04.2019 00:00:00 5,1 0,7 - 18 10 - - E 1020,6 22 0,0
14.04.2019 23:00:00 5,9 1,0 - 16 9 - - ESE 1020,8 20 0,0
14.04.2019 22:00:00 6,1 1,0 - 18 10 - - ESE 1020,7 20 0,0
14.04.2019 21:00:00 6,5 0,5 - 18 10 - - ESE 1020,7 29 0,0
14.04.2019 20:00:00 6,7 -0,5 - 18 10 46 25 ESE 1020,8 45 0,0
14.04.2019 19:00:00 6,9 -0,5 - 31 17 50 27 SE 1020,6 35 0,0
14.04.2019 18:00:00 6,9 -0,3 - 26 14 48 26 SE 1020,8 30 0,0
14.04.2019 17:00:00 5,6 0,6 - 29 16 54 29 SE 1021,3 17 0,0
14.04.2019 16:00:00 7,0 -0,3 - 29 16 54 29 SE 1021,3 40 0,0
14.04.2019 15:00:00 6,5 0,0 - 29 16 54 29 SE 1021,8 35 0,0
14.04.2019 14:00:00 6,3 -1,1 - 35 19 61 33 SE 1022,3 45 0,0
14.04.2019 13:00:00 6,0 -0,3 - 35 19 55 30 SE 1021,6 35 0,0
14.04.2019 12:00:00 5,5 -0,1 - 29 16 57 31 SE 1021,5 35 0,0
14.04.2019 11:00:00 5,6 -0,1 - 34 18 61 33 SE 1020,9 30 0,0
14.04.2019 10:00:00 5,7 0,1 9,0 31 17 55 30 ESE 1020,7 30 0,0
14.04.2019 09:00:00 5,5 0,3 - 29 16 55 30 ESE 1020,8 30 0,0
14.04.2019 08:00:00 5,5 0,4 - 22 12 - - ESE 1020,7 27 0,0
14.04.2019 07:00:00 5,7 0,6 - 22 12 - - ESE 1020,3 24 0,0
14.04.2019 06:00:00 6,0 0,7 - 24 13 46 25 ESE 1020,1 26 0,0
14.04.2019 05:00:00 6,2 1,0 - 24 13 - - ESE 1020,2 22 0,0
14.04.2019 04:00:00 6,2 1,0 - 22 12 - - ESE 1020,3 24 0,0
14.04.2019 03:00:00 6,3 1,1 - 21 11 - - ESE 1020,1 21 0,0
14.04.2019 02:00:00 6,9 0,9 - 22 12 - - ESE 1020,2 29 0,0
14.04.2019 01:00:00 7,0 1,2 - 21 11 - - ESE 1020,1 20 0,0
14.04.2019 00:00:00 6,9 1,9 - 18 10 - - ESE 1020,2 20 0,0
13.04.2019 23:00:00 6,8 1,8 - 18 10 - - ESE 1020,4 25 0,0
13.04.2019 22:00:00 7,0 0,9 - 18 10 - - ESE 1020,3 30 0,0
13.04.2019 21:00:00 6,9 0,7 - 24 13 48 26 ESE 1020,1 30 0,0
13.04.2019 20:00:00 7,2 0,1 - 26 14 55 30 SE 1019,7 45 0,0
13.04.2019 19:00:00 7,6 -0,3 - 37 20 70 38 SE 1019,7 40 0,0
13.04.2019 18:00:00 8,1 0,1 - 35 19 65 35 SE 1020,1 30 0,0
13.04.2019 17:00:00 8,4 0,8 - 39 21 68 37 SE 1020,3 40 0,0
13.04.2019 16:00:00 8,8 0,4 - 41 22 70 38 SE 1020,5 23 0,0
13.04.2019 15:00:00 9,9 1,9 - 46 25 74 40 SE 1020,8 17 0,0
13.04.2019 14:00:00 9,5 2,2 - 34 18 70 38 SE 1021,2 12 0,0
13.04.2019 13:00:00 9,2 3,1 - 37 20 67 36 SE 1021,3 12 0,0
13.04.2019 12:00:00 8,3 3,5 - 31 17 55 30 SE 1021,9 10 0,0
13.04.2019 11:00:00 8,2 3,4 - 29 16 54 29 SE 1022,2 11 0,0
13.04.2019 10:00:00 7,5 3,8 9,0 26 14 - - ESE 1022,2 13 0,0
13.04.2019 09:00:00 6,8 3,5 - 24 13 - - ESE 1022,3 14 0,0
13.04.2019 08:00:00 5,9 3,1 - 24 13 - - SE 1022,5 15 0,0
13.04.2019 07:00:00 5,1 2,5 - 15 8 - - ESE 1022,7 13 0,0
13.04.2019 06:00:00 4,8 2,4 - 13 7 - - ESE 1023,2 14 0,0
13.04.2019 05:00:00 4,3 2,6 - 11 6 - - ESE 1023,2 10 0,0
13.04.2019 04:00:00 4,2 2,9 - 11 6 - - SE 1023,8 8 0,0
13.04.2019 03:00:00 4,6 2,9 - 13 7 - - ESE 1023,6 8 0,0
13.04.2019 02:00:00 5,1 2,9 - 13 7 - - ESE 1023,8 9 0,0
13.04.2019 01:00:00 5,5 3,3 - 11 6 - - ESE 1023,4 8 0,0
13.04.2019 00:00:00 5,9 3,7 - 13 7 - - SE 1023,6 7 0,0

tt = temperature
td = dewpoint
tt -20cm = temperature -20cm
ff = wind speed
fx = gusts
dd = wind direction
ppp = reduced air pressure
vv = visibility
rr = precipitation

Next stations